Regional Weather Roundup
Issued by NWS State College, PA

Home | Current Version | Previous Version | Text Only | Print | Product List | Glossary Off
Versions: 1 2 3 4 5 6 7 8 9 10 11 12 13 14 15 16 17 18 19 20 21 22 23 24 25 26 27 28 29 30 31 32 33 34 35 36 37 38 39 40 41 42 43 44 45 46 47 48 49 50

000
ASUS41 KCTP 240103
RWRCTP

REGIONAL WEATHER ROUNDUP
NATIONAL WEATHER SERVICE STATE COLLEGE PA
800 PM EST THU FEB 23 2017

Note: "fair" indicates few or no clouds below 12,000 feet with no
significant weather and/or obstructions to visibility.

* = STATION THAT DOES NOT REPORT PRECIPITATION /E.G. RAIN...SNOW...ETC/
    THUNDER OR FOG.

PAZ002>004-007>009-013>016-020>023-029>032-240200-
WESTERN PENNSYLVANIA

CITY           SKY/WX    TMP DP  RH WIND       PRES   REMARKS
ERIE           CLOUDY    48  44  86 S6        29.83R
MEADVILLE      CLOUDY    54  48  80 NE3       29.83R
FRANKLIN*      CLOUDY    57  50  77 CALM      29.84S
NEW CASTLE     CLOUDY    60  53  77 CALM      29.82S
BEAVER COUNTY  NOT AVBL
BUTLER*        CLOUDY    55  54  94 CALM      29.83F
PITTSBURGH INT CLOUDY    61  53  75 S5        29.82S
PITTSBURGH     PTCLDY    63  50  62 S5        29.82S
INDIANA*       MOCLDY    59  52  77 CALM      29.87R
LATROBE        MOCLDY    63  54  72 SW6       29.85S
WASHINGTON CO* CLOUDY    61  52  72 CALM      29.85S
$$

PAZ004>006-010>012-017>019-024>028-033>037-041-042-045-046-049>053-240200-
CENTRAL PENNSYLVANIA

CITY           SKY/WX    TMP DP  RH WIND       PRES   REMARKS
BRADFORD       CLOUDY    52  50  93 NW5       29.85S
DUBOIS         MOCLDY    59  50  72 SE3       29.84S
CLEARFIELD       N/A    N/A N/A N/A MISG      29.85S
JOHNSTOWN      CLOUDY    58  51  78 SW5       29.86S
ALTOONA        CLEAR     59  50  72 SW6       29.85F
STATE COLLEGE  PTCLDY    61  52  72 CALM      29.85R
WILLIAMSPORT   MOCLDY    54  51  90 CALM      29.84R
SELINSGROVE    CLOUDY    61  53  75 CALM      29.83R
FT INDIANTOWN  PTCLDY    58  57  95 CALM      29.84R
CAPITAL CITY   PTCLDY    70  51  51 S10       29.82R
HARRISBURG     MOCLDY    66  52  60 S6        29.82R
YORK           PTCLDY    65  53  65 VRB5      29.83S
$$

PAZ038>040-043-044-047-048-054-055-060>062-067>071-240200-
EASTERN PENNSYLVANIA

CITY           SKY/WX    TMP DP  RH WIND       PRES   REMARKS
SCRANTON       CLOUDY    63  52  67 CALM      29.84R
MOUNT POCONO   MOCLDY    58  51  78 W3        29.87R
ALLENTOWN      CLOUDY    68  51  54 SW9       29.84S
QUAKERTOWN*    PTCLDY    63  50  63 CALM      29.87R
READING        MOCLDY    65  54  67 S7        29.84R
LANCASTER      MOCLDY    65  55  70 S9        29.84R
COATESVILLE    CLEAR     61  54  77 VRB5      29.88R
POTTSTOWN      PTCLDY    63  52  67 S5        29.87R
BLUE BELL      CLOUDY    63  52  67 S6        29.86R
DOYLESTOWN     PTCLDY    64  53  67 S5        29.85S
WILLOW GROVE   NOT AVBL
NORTH PHILA    CLEAR     66  54  65 S3        29.88R
PHILADELPHIA   PTCLDY    63  52  67 S7        29.88R
$$




USA.gov is the U.S. government's official web portal to all federal, state and local government web resources and services.